Regional Weather Roundup
Issued by NWS

Home | Current Version | Previous Version | Text Only | Print | Product List | Glossary Off
Versions: 1 2 3 4 5 6 7 8 9 10 11 12 13 14 15 16 17 18 19 20 21 22 23 24 25 26 27 28 29 30 31 32 33 34 35 36 37 38 39 40 41 42 43 44 45 46 47 48 49 50

000
ASUS44 KMEG 280110
RWRTN
TENNESSEE HOURLY STATE WEATHER ROUNDUP
NATIONAL WEATHER SERVICE MEMPHIS TN
700 PM CST SAT DEC 27 2014

TNZ002-004-019-021-049-052-054-088>092-280200-
WEST TENNESSEE

CITY           SKY/WX    TMP DP  RH WIND       PRES   REMARKS
MEMPHIS INTL   RAIN      54  52  93 N8        30.07F VSB 1
NWS MEMPHIS      N/A     53 N/A N/A MISG        N/A
JACKSON        CLOUDY    51  50  96 CALM      30.10R
DYERSBURG      CLOUDY    50  39  66 N3        30.11R
UNION CITY     CLOUDY    46  46 100 N5        30.09S VSB 1
PARIS          CLOUDY    48  46  93 S3        30.09S
HUNTINGDON     CLOUDY    48  47  97 CALM      30.09F
LEXINGTON      CLOUDY    48  48 100 CALM      30.08S
SAVANNAH       CLOUDY    50  50 100 S3        30.09F
$$

TNZ008-025-027-028-033-062-065-066-280200-
NORTH MIDDLE TENNESSEE

CITY           SKY/WX    TMP DP  RH WIND       PRES   REMARKS
NASHVILLE      LGT RAIN  49  47  93 SE5       30.11F
CLARKSVILLE    CLOUDY    49  48  97 SE5       30.08F
SMYRNA         CLOUDY    48  47  97 SE7       30.13F
COOKEVILLE     CLOUDY    46  46 100 CALM      30.14F
CROSSVILLE     CLOUDY    51  37  58 S5        30.15F
$$

TNZ061-075-076-078-094-096-097-280200-
SOUTH MIDDLE TENNESSEE

CITY           SKY/WX    TMP DP  RH WIND       PRES   REMARKS
FAYETTEVILLE   CLOUDY    52  45  76 MISG      30.10F
TULLAHOMA      MOCLDY    54  39  58 S8        30.12F
WINCHESTER     CLOUDY    54  45  71 S15       30.13F
MCMINNVILLE    CLOUDY    48  48 100 CALM      30.14S
COLUMBIA       CLOUDY   N/A N/A N/A SE5       30.10F
SHELBYVILLE    CLOUDY    48  48 100 NE5       30.13F
$$

TNZ017-018-042-046-047-280200-
NORTHEAST TENNESSEE

CITY           SKY/WX    TMP DP  RH WIND       PRES   REMARKS
TRI CITIES     DRIZZLE   50  38  63 W3        30.17F
ELIZABETHTON   MOCLDY    45  36  70 CALM      30.16F
$$

TNZ012-013-036-069-073-074-280200-
CENTRAL EAST TENNESSEE

CITY           SKY/WX    TMP DP  RH WIND       PRES   REMARKS
KNOXVILLE      LGT RAIN  50  40  68 CALM      30.17F
OAK RIDGE      CLOUDY    52  40  63 CALM      30.18F
GATLINBURG     CLOUDY    46  39  76 E3        30.16F
MORRISTOWN     CLOUDY    46  41  81 CALM      30.18F
$$

TNZ083-085-099-280200-
SOUTHEAST TENNESSEE

CITY           SKY/WX    TMP DP  RH WIND       PRES   REMARKS
CHATTANOOGA    MOCLDY    51  43  74 SW3       30.18F
$$

SKY/WX REPORTED AS FAIR MEANS FEW OR NO CLOUDS BELOW
12 THOUSAND FEET.




USA.gov is the U.S. government's official web portal to all federal, state and local government web resources and services.